Content
SEND FEEDBACK

Daily
Averages
Monthly
Summary
United States of America

ASHEVILLE, NORTH CAROLINA


Home > North America > United States > North Carolina
Elevation: 682 meters     Latitude: 35 36N     Longitude: 082 32W

WEATHER
 
SELECT A DAY
Number of Records: 228,668;   Date Range: 1/1/95 - 9/28/14
 
SHARE

PRINT THIS DATA

[ ← Previous Day ]
WEATHER ALMANAC - 27 JANUARY, 2013
[ Next Day → ]
[ °F ]   °C
Weather ElementAverageHighLow
Temperature0.2 °C5 °C (1:54 pm)-4.4 °C (4:54 am)
Dewpoint-3.8 °C-1.1 °C (11:54 pm)-6 °C (6:47 am)
Humidity75.8 %93 % (7:41 am)55 % (1:54 pm)
Barometer1030.8 hPa1032.8 hPa (10:54 am)1027.8 hPa (1:54 am)
Wind Speed7.4 km/h14.8 km/h (9:54 am)
Wind Gust25.9 km/h (10:54 am)
Weather ElementAverage
Visibility14.6 km
Wind DirectionESE (105.9 °)

Weather ElementTotal
Precipitation0.25 mm
Heating Degree Days18.1 (Base 18.3)
Averaged from 27 records on 27 January, 2013
WEATHER CONDITIONS BREAKOUT
WIND DIRECTION BREAKOUT
WEATHER BY HOUR - 27 JANUARY, 2013
[ °F ]   °C
Local TimeTemperatureDewpointHumidityBarometerVisibilityWind DirectionWind SpeedGust SpeedPrecipitationEventsConditions
1:54 AM-2.2 °C-4.4 °C85 %1027.8 hPa16.1 kmCalmClear
2:54 AM-3.9 °C-5 °C92 %1028.8 hPa14.5 kmCalmClear
3:54 AM-3.9 °C-5 °C92 %1028.4 hPa14.5 kmCalmClear
4:54 AM-4.4 °C-5.6 °C91 %1029.1 hPa11.3 kmSouth (170°)7.4 km/hClear
5:54 AM-4.4 °C-5.6 °C91 %1029.8 hPa12.9 kmSouth (170°)5.6 km/hClear
6:47 AM-4 °C-6 °C86 %1029.5 hPa12.9 kmSouth (170°)5.6 km/hMostly Cloudy
6:54 AM-4.4 °C-5.6 °C91 %1030.8 hPa12.9 kmCalmScattered Clouds
7:41 AM-3 °C-4 °C93 %1030.1 hPa11.3 kmCalmMostly Cloudy
7:51 AM-3 °C-4 °C93 %1030.5 hPa9.7 kmCalmMostly Cloudy
7:54 AM-2.8 °C-3.9 °C92 %1031.8 hPa9.7 kmCalmOvercast
8:54 AM-1.1 °C-2.8 °C88 %1032.2 hPa12.9 kmSSE (160°)9.3 km/hOvercast
9:54 AM-0.6 °C-3.3 °C82 %1032.5 hPa16.1 kmSouth (170°)14.8 km/hOvercast
10:30 AM0 °C-4 °C75 %1031.2 hPa16.1 kmSE (140°)13 km/hOvercast
10:54 AM0.6 °C-4.4 °C70 %1032.8 hPa16.1 kmSSE (150°)13 km/h25.9 km/hOvercast
11:54 AM2.2 °C-3.9 °C64 %1032.2 hPa16.1 kmESE (110°)11.1 km/hScattered Clouds
12:54 PM3.3 °C-3.3 °C62 %1031.2 hPa16.1 kmVariable5.6 km/hClear
1:54 PM5 °C-3.3 °C55 %1030.5 hPa16.1 kmSSE (160°)13 km/hClear
2:54 PM5 °C-3.3 °C55 %1030.1 hPa16.1 kmSSE (150°)14.8 km/hScattered Clouds
3:54 PM4.4 °C-3.3 °C58 %1030.5 hPa16.1 kmESE (120°)13 km/hOvercast
4:54 PM3.9 °C-3.3 °C60 %1030.8 hPa16.1 kmSSE (150°)11.1 km/hOvercast
5:54 PM3.3 °C-3.3 °C62 %1031.2 hPa16.1 kmSSE (150°)7.4 km/hOvercast
6:54 PM3.3 °C-3.3 °C62 %1031.8 hPa16.1 kmSE (140°)7.4 km/hOvercast
7:54 PM2.8 °C-2.8 °C67 %1031.8 hPa16.1 kmSSE (150°)5.6 km/hOvercast
8:54 PM2.8 °C-2.8 °C67 %1031.5 hPa16.1 kmSE (140°)9.3 km/hOvercast
9:54 PM2.8 °C-2.8 °C67 %1031.2 hPa16.1 kmSSE (160°)9.3 km/hMostly Cloudy
10:54 PM2.8 °C-2.8 °C67 %1031.2 hPa16.1 kmSSE (150°)13 km/h0 mmRainLight Rain
11:54 PM2.2 °C-1.1 °C79 %1029.8 hPa16.1 kmSSE (150°)9.3 km/h0.25 mmOvercast
Hourly data recorded from KAVL, located 0 kilometers away from Asheville, North Carolina







STORIES FROM OUR PARTNERS